FIN8WP EFHK-EHAM

Flight info

Callsign FIN8WP
Flight time 1h 9m
Altitude 40000
Route NUNTO Y369 REKDO DCT KOSKA DCT KOPIM N872 DEMIR DCT WANZA N872 OGFON DCT KUBAT T200 BLUFA
Aircraft A359/H-SDE2E3GHIJ3J4J5LM1ORWXY/LB1D1

Departure

Time 2026-05-07 15:36
Airport Helsinki Vantaa Airport (EFHK)

Arrival

Time 2026-05-07 16:45
Airport Amsterdam Airport Schiphol (EHAM)
Time Latitude Longitude Altitude Speed Heading
2026-05-07 15:10 60.31673 24.96027 170 ft 0 kts 137°
2026-05-07 15:23 60.31679 24.96015 170 ft 4 kts 137°
2026-05-07 15:23 60.31699 24.95978 170 ft 4 kts 137°
2026-05-07 15:23 60.31717 24.95946 170 ft 2 kts 137°
2026-05-07 15:24 60.31729 24.95913 170 ft 4 kts 73°
2026-05-07 15:24 60.31715 24.95875 170 ft 3 kts 47°
2026-05-07 15:24 60.31697 24.95835 170 ft 4 kts 47°
2026-05-07 15:24 60.31684 24.95806 170 ft 0 kts 47°
2026-05-07 15:28 60.31692 24.95824 170 ft 4 kts 47°
2026-05-07 15:28 60.31732 24.95912 170 ft 12 kts 47°
2026-05-07 15:28 60.31784 24.96027 170 ft 10 kts 47°
2026-05-07 15:28 60.31830 24.96127 170 ft 9 kts 45°
2026-05-07 15:29 60.31862 24.96140 170 ft 1 kts 343°
2026-05-07 15:29 60.31868 24.96135 171 ft 4 kts 339°
2026-05-07 15:29 60.31894 24.96091 172 ft 8 kts 312°
2026-05-07 15:29 60.31955 24.95981 176 ft 14 kts 317°
2026-05-07 15:30 60.32001 24.95895 178 ft 0 kts 317°
2026-05-07 15:31 60.32002 24.95893 178 ft 3 kts 317°
2026-05-07 15:31 60.32103 24.95707 180 ft 25 kts 317°
2026-05-07 15:31 60.32198 24.95531 180 ft 18 kts 317°
2026-05-07 15:31 60.32297 24.95350 182 ft 20 kts 321°
2026-05-07 15:32 60.32422 24.95221 187 ft 21 kts 340°
2026-05-07 15:32 60.32562 24.95128 198 ft 22 kts 343°
2026-05-07 15:32 60.32711 24.95034 191 ft 23 kts 341°
2026-05-07 15:32 60.32877 24.94916 181 ft 27 kts 334°
2026-05-07 15:33 60.32966 24.94782 199 ft 14 kts 320°
2026-05-07 15:33 60.33039 24.94647 204 ft 14 kts 315°
2026-05-07 15:33 60.33110 24.94510 208 ft 14 kts 316°
2026-05-07 15:33 60.33126 24.94464 207 ft 2 kts 277°
2026-05-07 15:34 60.33109 24.94379 209 ft 10 kts 230°
2026-05-07 15:34 60.33090 24.94335 202 ft 0 kts 228°
2026-05-07 15:34 60.33080 24.94312 208 ft 4 kts 228°
2026-05-07 15:35 60.33048 24.94240 200 ft 9 kts 228°
2026-05-07 15:35 60.32989 24.94112 207 ft 20 kts 227°
2026-05-07 15:35 60.32801 24.93699 202 ft 73 kts 227°
2026-05-07 15:35 60.32273 24.92538 174 ft 146 kts 227°
2026-05-07 15:36 60.31534 24.90835 716 ft 162 kts 226°
2026-05-07 15:36 60.30860 24.89052 1691 ft 160 kts 234°
2026-05-07 15:36 60.30527 24.86761 2290 ft 187 kts 263°
2026-05-07 15:36 60.30484 24.83998 2980 ft 207 kts 268°
2026-05-07 15:37 60.30458 24.80988 3640 ft 225 kts 268°
2026-05-07 15:37 60.30290 24.77734 4304 ft 242 kts 257°
2026-05-07 15:37 60.29730 24.74424 5088 ft 256 kts 250°
2026-05-07 15:37 60.29048 24.71063 6020 ft 262 kts 250°
2026-05-07 15:38 60.28340 24.67634 7017 ft 266 kts 250°
2026-05-07 15:38 60.27630 24.64182 8137 ft 267 kts 250°
2026-05-07 15:38 60.26918 24.60714 9162 ft 267 kts 249°
2026-05-07 15:38 60.26209 24.57260 10087 ft 269 kts 249°
2026-05-07 15:39 60.25491 24.53761 11109 ft 270 kts 249°
2026-05-07 15:39 60.24773 24.50275 12277 ft 267 kts 249°
2026-05-07 15:39 60.23981 24.46884 13385 ft 271 kts 245°
2026-05-07 15:39 60.23068 24.43412 13956 ft 290 kts 244°
2026-05-07 15:40 60.22071 24.39712 14354 ft 311 kts 243°
2026-05-07 15:40 60.21015 24.35806 15000 ft 323 kts 243°
2026-05-07 15:40 60.19933 24.31810 15909 ft 327 kts 243°
2026-05-07 15:40 60.18854 24.27830 16869 ft 330 kts 243°
2026-05-07 15:41 60.17755 24.23777 17881 ft 332 kts 244°
2026-05-07 15:41 60.16649 24.19698 18739 ft 335 kts 243°
2026-05-07 15:41 60.15526 24.15564 19573 ft 338 kts 243°
2026-05-07 15:41 60.14393 24.11401 20392 ft 341 kts 243°
2026-05-07 15:42 60.13250 24.07210 21247 ft 344 kts 243°
2026-05-07 15:42 60.12100 24.02996 22080 ft 346 kts 243°
2026-05-07 15:42 60.10934 23.98735 22900 ft 350 kts 243°
2026-05-07 15:42 60.09760 23.94453 23702 ft 352 kts 243°
2026-05-07 15:43 60.08574 23.90129 24427 ft 355 kts 244°
2026-05-07 15:43 60.07393 23.85778 25073 ft 357 kts 244°
2026-05-07 15:43 60.06619 23.82850 25440 ft 360 kts 245°
2026-05-07 15:43 60.05448 23.78353 25924 ft 368 kts 245°
2026-05-07 15:44 60.04262 23.73779 26537 ft 371 kts 245°
2026-05-07 15:44 60.03067 23.69182 27219 ft 374 kts 245°
2026-05-07 15:44 60.01855 23.64543 27878 ft 377 kts 244°
2026-05-07 15:44 60.00630 23.59882 28479 ft 381 kts 244°
2026-05-07 15:45 59.99391 23.55188 29096 ft 384 kts 244°
2026-05-07 15:45 59.98129 23.50426 29679 ft 387 kts 244°
2026-05-07 15:45 59.96865 23.45665 30246 ft 391 kts 244°
2026-05-07 15:45 59.95583 23.40851 30685 ft 395 kts 244°
2026-05-07 15:46 59.92993 23.31154 31541 ft 402 kts 244°
2026-05-07 15:46 59.91670 23.26213 31959 ft 406 kts 244°
2026-05-07 15:46 59.90332 23.21231 32384 ft 409 kts 244°
2026-05-07 15:47 59.88983 23.16217 32776 ft 413 kts 243°
2026-05-07 15:47 59.87618 23.11154 33073 ft 417 kts 243°
2026-05-07 15:47 59.86235 23.06035 33379 ft 421 kts 243°
2026-05-07 15:47 59.84840 23.00884 33773 ft 424 kts 243°
2026-05-07 15:48 59.83435 22.95712 34141 ft 426 kts 243°
2026-05-07 15:48 59.82019 22.90509 34334 ft 433 kts 243°
2026-05-07 15:48 59.80579 22.85227 34545 ft 437 kts 243°
2026-05-07 15:48 59.79123 22.79901 34832 ft 439 kts 243°
2026-05-07 15:49 59.77666 22.74585 35235 ft 438 kts 243°
2026-05-07 15:49 59.76204 22.69272 35593 ft 438 kts 243°
2026-05-07 15:49 59.74741 22.63962 35926 ft 439 kts 243°
2026-05-07 15:49 59.73274 22.58641 36259 ft 440 kts 243°
2026-05-07 15:50 59.71816 22.53367 36571 ft 441 kts 243°
2026-05-07 15:50 59.70342 22.48045 36886 ft 441 kts 243°
2026-05-07 15:50 59.68863 22.42721 37188 ft 442 kts 242°
2026-05-07 15:50 59.67377 22.37384 37518 ft 442 kts 242°
2026-05-07 15:51 59.65889 22.32055 37823 ft 443 kts 242°
2026-05-07 15:51 59.64399 22.26728 38126 ft 443 kts 242°
2026-05-07 15:51 59.62903 22.21395 38429 ft 444 kts 242°
2026-05-07 15:51 59.61398 22.16042 38726 ft 444 kts 242°
2026-05-07 15:52 59.59891 22.10694 38955 ft 445 kts 242°
2026-05-07 15:52 59.58383 22.05354 39166 ft 446 kts 242°
2026-05-07 15:52 59.56871 22.00013 39366 ft 446 kts 242°
2026-05-07 15:52 59.55351 21.94654 39563 ft 448 kts 242°
2026-05-07 15:53 59.53828 21.89298 39730 ft 449 kts 242°
2026-05-07 15:53 59.52293 21.83915 39937 ft 449 kts 242°
2026-05-07 15:53 59.50759 21.78546 40075 ft 451 kts 242°
2026-05-07 15:54 59.47669 21.67773 40109 ft 456 kts 241°
2026-05-07 15:54 59.40523 21.42999 40108 ft 465 kts 241°
2026-05-07 15:55 59.27689 20.99212 40118 ft 466 kts 241°
2026-05-07 15:55 59.14542 20.55504 40116 ft 467 kts 239°
2026-05-07 15:56 59.00902 20.12622 40121 ft 465 kts 239°
2026-05-07 15:56 58.87157 19.70019 40119 ft 467 kts 239°
2026-05-07 15:57 58.73244 19.27672 40119 ft 467 kts 238°
2026-05-07 15:57 58.59156 18.85553 40118 ft 469 kts 238°
2026-05-07 15:58 58.44997 18.43962 40115 ft 469 kts 238°
2026-05-07 15:58 58.30600 18.02411 40103 ft 469 kts 237°
2026-05-07 15:59 58.16078 17.61221 40120 ft 469 kts 237°
2026-05-07 15:59 58.01368 17.20210 40112 ft 472 kts 236°
2026-05-07 16:00 57.86510 16.79490 40110 ft 472 kts 236°
2026-05-07 16:00 57.71592 16.39294 40100 ft 473 kts 236°
2026-05-07 16:01 57.56402 15.99045 40083 ft 474 kts 235°
2026-05-07 16:01 57.41068 15.59087 40071 ft 476 kts 235°
2026-05-07 16:02 57.25560 15.19342 40054 ft 476 kts 234°
2026-05-07 16:02 57.09890 14.79837 40060 ft 478 kts 234°
2026-05-07 16:03 56.94134 14.40754 40053 ft 479 kts 234°
2026-05-07 16:03 56.78143 14.01727 40071 ft 481 kts 233°
2026-05-07 16:04 56.61994 13.62944 40076 ft 481 kts 233°
2026-05-07 16:04 56.45698 13.24429 40101 ft 482 kts 233°
2026-05-07 16:05 56.29219 12.86094 40102 ft 483 kts 232°
2026-05-07 16:05 56.12597 12.48034 40112 ft 485 kts 232°
2026-05-07 16:06 55.95208 12.11097 40113 ft 485 kts 230°
2026-05-07 16:06 55.77717 11.74377 40119 ft 486 kts 230°
2026-05-07 16:07 55.60086 11.37918 40113 ft 487 kts 229°
2026-05-07 16:07 55.42338 11.01789 40111 ft 488 kts 229°
2026-05-07 16:08 55.24453 10.65918 40120 ft 488 kts 229°
2026-05-07 16:08 55.06467 10.30377 40113 ft 488 kts 229°
2026-05-07 16:09 54.88353 9.95028 40127 ft 489 kts 229°
2026-05-07 16:09 54.72108 9.57185 40105 ft 490 kts 234°
2026-05-07 16:10 54.56232 9.18983 40102 ft 490 kts 234°
2026-05-07 16:10 54.40301 8.81246 40093 ft 490 kts 234°
2026-05-07 16:11 54.24120 8.43505 40098 ft 491 kts 233°
2026-05-07 16:11 54.04617 8.10885 40096 ft 491 kts 223°
2026-05-07 16:12 53.92084 7.90810 40096 ft 491 kts 223°
2026-05-07 16:12 53.87115 7.82893 40090 ft 492 kts 223°
2026-05-07 16:13 53.82128 7.74973 40087 ft 492 kts 223°
2026-05-07 16:13 53.77129 7.67063 40079 ft 491 kts 223°
2026-05-07 16:14 53.72183 7.59264 40075 ft 480 kts 223°
2026-05-07 16:14 53.69355 7.54816 40073 ft 478 kts 223°
2026-05-07 16:15 53.64576 7.47318 40085 ft 478 kts 223°
2026-05-07 16:15 53.59710 7.39709 40074 ft 478 kts 223°
2026-05-07 16:15 53.57280 7.35920 39935 ft 472 kts 223°
2026-05-07 16:16 53.54875 7.32174 39341 ft 472 kts 223°
2026-05-07 16:16 53.52457 7.28415 38630 ft 475 kts 223°
2026-05-07 16:16 53.50023 7.24638 37859 ft 475 kts 223°
2026-05-07 16:16 53.47595 7.20875 37173 ft 474 kts 223°
2026-05-07 16:17 53.45173 7.17126 36497 ft 473 kts 223°
2026-05-07 16:17 53.42750 7.13385 35796 ft 474 kts 222°
2026-05-07 16:17 53.40325 7.09644 35065 ft 475 kts 222°
2026-05-07 16:17 53.37891 7.05896 34296 ft 478 kts 222°
2026-05-07 16:18 53.35428 7.02111 33350 ft 481 kts 222°
2026-05-07 16:18 53.32958 6.98326 32493 ft 482 kts 222°
2026-05-07 16:18 53.30411 6.94783 31679 ft 482 kts 218°
2026-05-07 16:18 53.27781 6.91352 31075 ft 477 kts 218°
2026-05-07 16:19 53.25171 6.87944 30457 ft 473 kts 218°
2026-05-07 16:19 53.22596 6.84559 29831 ft 469 kts 218°
2026-05-07 16:19 53.20045 6.81192 29176 ft 464 kts 218°
2026-05-07 16:19 53.17528 6.77863 28566 ft 459 kts 218°
2026-05-07 16:20 53.15044 6.74577 27969 ft 453 kts 218°
2026-05-07 16:20 53.12590 6.71332 27380 ft 449 kts 218°
2026-05-07 16:20 53.10160 6.68120 26806 ft 444 kts 218°
2026-05-07 16:20 53.07752 6.64943 26204 ft 440 kts 218°
2026-05-07 16:21 53.05369 6.61802 25644 ft 436 kts 219°
2026-05-07 16:21 53.03003 6.58687 25064 ft 432 kts 218°
2026-05-07 16:21 53.00686 6.55641 24494 ft 428 kts 218°
2026-05-07 16:21 52.98353 6.52578 23918 ft 425 kts 218°
2026-05-07 16:22 52.96043 6.49551 23299 ft 422 kts 218°
2026-05-07 16:22 52.93754 6.46554 22699 ft 417 kts 218°
2026-05-07 16:22 52.91488 6.43591 22115 ft 412 kts 218°
2026-05-07 16:22 52.89240 6.40657 21531 ft 408 kts 218°
2026-05-07 16:23 52.87019 6.37760 20950 ft 404 kts 218°
2026-05-07 16:23 52.84826 6.34871 20381 ft 401 kts 220°
2026-05-07 16:23 52.82906 6.31575 19822 ft 396 kts 232°
2026-05-07 16:23 52.81291 6.27896 19252 ft 394 kts 236°
2026-05-07 16:24 52.79743 6.24181 18696 ft 392 kts 236°
2026-05-07 16:24 52.78202 6.20483 18065 ft 390 kts 236°
2026-05-07 16:24 52.76662 6.16808 17461 ft 387 kts 236°
2026-05-07 16:24 52.75150 6.13209 16878 ft 384 kts 235°
2026-05-07 16:25 52.73629 6.09602 16297 ft 382 kts 235°
2026-05-07 16:25 52.72115 6.06021 15726 ft 379 kts 235°
2026-05-07 16:25 52.70610 6.02467 15163 ft 377 kts 235°
2026-05-07 16:25 52.69114 5.98940 14591 ft 375 kts 235°
2026-05-07 16:26 52.67616 5.95415 14014 ft 373 kts 235°
2026-05-07 16:26 52.66136 5.91938 13386 ft 370 kts 235°
2026-05-07 16:26 52.64668 5.88493 12823 ft 366 kts 235°
2026-05-07 16:26 52.63698 5.86219 12448 ft 364 kts 235°
2026-05-07 16:27 52.61765 5.81695 11732 ft 357 kts 235°
2026-05-07 16:27 52.60369 5.78431 11586 ft 341 kts 235°
2026-05-07 16:27 52.59034 5.75315 11453 ft 325 kts 235°
2026-05-07 16:27 52.57761 5.72347 11322 ft 311 kts 235°
2026-05-07 16:28 52.56538 5.69498 11182 ft 298 kts 235°
2026-05-07 16:28 52.55366 5.66770 11055 ft 286 kts 235°
2026-05-07 16:28 52.54254 5.64186 10900 ft 277 kts 235°
2026-05-07 16:28 52.53148 5.61618 10623 ft 274 kts 235°
2026-05-07 16:29 52.52048 5.59064 10317 ft 274 kts 235°
2026-05-07 16:29 52.51064 5.56404 10010 ft 272 kts 246°
2026-05-07 16:29 52.50367 5.53493 9914 ft 278 kts 250°
2026-05-07 16:29 52.49724 5.50493 9845 ft 278 kts 251°
2026-05-07 16:30 52.49088 5.47500 9718 ft 278 kts 250°
2026-05-07 16:30 52.48448 5.44502 9609 ft 279 kts 250°
2026-05-07 16:30 52.47801 5.41493 9492 ft 280 kts 250°
2026-05-07 16:30 52.47152 5.38478 9396 ft 280 kts 250°
2026-05-07 16:31 52.46504 5.35481 9291 ft 279 kts 250°
2026-05-07 16:31 52.45856 5.32489 9165 ft 277 kts 249°
2026-05-07 16:31 52.45210 5.29511 9053 ft 277 kts 249°
2026-05-07 16:31 52.44562 5.26531 8952 ft 278 kts 250°
2026-05-07 16:32 52.43914 5.23554 8840 ft 278 kts 250°
2026-05-07 16:32 52.43485 5.21582 8772 ft 278 kts 250°
2026-05-07 16:32 52.42833 5.18595 8661 ft 277 kts 250°
2026-05-07 16:32 52.41974 5.14658 8511 ft 276 kts 249°
2026-05-07 16:33 52.41328 5.11707 8400 ft 275 kts 249°
2026-05-07 16:33 52.40678 5.08745 8301 ft 276 kts 249°
2026-05-07 16:33 52.40030 5.05797 8194 ft 276 kts 250°
2026-05-07 16:33 52.39589 5.03792 8124 ft 276 kts 249°
2026-05-07 16:34 52.38950 5.00881 8010 ft 275 kts 249°
2026-05-07 16:34 52.38299 4.97928 7912 ft 275 kts 249°
2026-05-07 16:34 52.37653 4.94999 7795 ft 274 kts 249°
2026-05-07 16:34 52.37007 4.92073 7681 ft 272 kts 249°
2026-05-07 16:35 52.36363 4.89159 7582 ft 272 kts 249°
2026-05-07 16:35 52.35719 4.86256 7482 ft 272 kts 249°
2026-05-07 16:35 52.35072 4.83343 7366 ft 272 kts 248°
2026-05-07 16:35 52.34438 4.80485 7258 ft 262 kts 249°
2026-05-07 16:36 52.33831 4.77745 7129 ft 250 kts 248°
2026-05-07 16:36 52.33405 4.75059 7062 ft 241 kts 263°
2026-05-07 16:36 52.33551 4.72341 6968 ft 243 kts 278°
2026-05-07 16:36 52.33918 4.69628 6627 ft 244 kts 281°
2026-05-07 16:37 52.34313 4.66938 6297 ft 243 kts 281°
2026-05-07 16:37 52.34502 4.64233 6046 ft 238 kts 263°
2026-05-07 16:37 52.34002 4.61703 5794 ft 234 kts 240°
2026-05-07 16:37 52.33165 4.59428 5533 ft 234 kts 236°
2026-05-07 16:38 52.32282 4.57191 5294 ft 234 kts 236°
2026-05-07 16:38 52.31402 4.54960 5066 ft 234 kts 236°
2026-05-07 16:38 52.30525 4.52718 4804 ft 234 kts 236°
2026-05-07 16:38 52.29651 4.50473 4563 ft 235 kts 237°
2026-05-07 16:39 52.28788 4.48251 4321 ft 235 kts 237°
2026-05-07 16:39 52.27901 4.46008 4059 ft 234 kts 234°
2026-05-07 16:39 52.26735 4.44185 3824 ft 233 kts 208°
2026-05-07 16:39 52.25193 4.43585 3595 ft 230 kts 175°
2026-05-07 16:40 52.23698 4.44356 3347 ft 226 kts 149°
2026-05-07 16:40 52.22382 4.45762 3110 ft 225 kts 138°
2026-05-07 16:40 52.21492 4.47734 3043 ft 210 kts 112°
2026-05-07 16:40 52.21020 4.49916 2974 ft 198 kts 105°
2026-05-07 16:41 52.20847 4.52037 2899 ft 182 kts 84°
2026-05-07 16:41 52.21237 4.53891 2825 ft 167 kts 60°
2026-05-07 16:41 52.21851 4.55432 2670 ft 159 kts 56°
2026-05-07 16:41 52.22446 4.56933 2437 ft 156 kts 58°
2026-05-07 16:42 52.23013 4.58424 2202 ft 153 kts 58°
2026-05-07 16:42 52.23565 4.59857 2022 ft 148 kts 58°
2026-05-07 16:42 52.24105 4.61256 1808 ft 143 kts 57°
2026-05-07 16:42 52.24622 4.62596 1599 ft 136 kts 57°
2026-05-07 16:43 52.25113 4.63875 1421 ft 130 kts 57°
2026-05-07 16:43 52.25578 4.65115 1188 ft 128 kts 56°
2026-05-07 16:43 52.26058 4.66361 1040 ft 129 kts 55°
2026-05-07 16:43 52.26544 4.67584 879 ft 129 kts 55°
2026-05-07 16:44 52.27016 4.68827 723 ft 129 kts 57°
2026-05-07 16:44 52.27476 4.70062 554 ft 129 kts 57°
2026-05-07 16:44 52.27955 4.71289 387 ft 129 kts 56°
2026-05-07 16:44 52.28436 4.72513 219 ft 127 kts 56°
2026-05-07 16:45 52.28907 4.73716 52 ft 127 kts 58°
2026-05-07 16:45 52.29370 4.74910 11 ft 121 kts 62°
2026-05-07 16:45 52.29733 4.75864 4 ft 70 kts 59°
2026-05-07 16:45 52.29875 4.76231 3 ft 11 kts 58°
2026-05-07 16:46 52.29921 4.76351 2 ft 15 kts 58°
2026-05-07 16:46 52.29988 4.76488 4 ft 16 kts 41°
2026-05-07 16:46 52.30083 4.76589 5 ft 17 kts 27°
2026-05-07 16:46 52.30182 4.76672 5 ft 15 kts 28°
2026-05-07 16:47 52.30266 4.76745 5 ft 13 kts 33°
2026-05-07 16:47 52.30327 4.76864 5 ft 15 kts 58°
2026-05-07 16:47 52.30387 4.77021 5 ft 18 kts 58°
2026-05-07 16:47 52.30456 4.77201 5 ft 20 kts 58°
2026-05-07 16:48 52.30502 4.77322 5 ft 0 kts 58°
2026-05-07 16:48 52.30503 4.77322 5 ft 0 kts 58°
2026-05-07 16:48 52.30504 4.77324 5 ft 1 kts 58°
2026-05-07 16:49 52.30509 4.77339 5 ft 3 kts 58°
2026-05-07 16:49 52.30526 4.77382 5 ft 6 kts 58°
2026-05-07 16:49 52.30555 4.77458 5 ft 10 kts 58°
2026-05-07 16:49 52.30606 4.77549 5 ft 12 kts 33°
2026-05-07 16:50 52.30694 4.77588 5 ft 15 kts
2026-05-07 16:50 52.30804 4.77589 5 ft 17 kts
2026-05-07 16:50 52.30921 4.77610 5 ft 19 kts
2026-05-07 16:51 52.31009 4.77620 5 ft 21 kts
2026-05-07 16:51 52.31144 4.77634 5 ft 17 kts
2026-05-07 16:51 52.31256 4.77641 5 ft 13 kts
2026-05-07 16:51 52.31281 4.77588 5 ft 9 kts 276°
2026-05-07 16:52 52.31287 4.77415 5 ft 17 kts 273°
2026-05-07 16:52 52.31287 4.77288 5 ft 7 kts 249°
2026-05-07 16:52 52.31251 4.77273 5 ft 6 kts 183°
2026-05-07 16:52 52.31224 4.77271 5 ft 1 kts 183°
2026-05-07 16:53 52.31223 4.77271 5 ft 0 kts 183°
2026-05-07 16:53 52.31219 4.77270 5 ft 0 kts 183°
2026-05-07 16:53 52.31218 4.77270 5 ft 0 kts 183°